FW0135 Weather Reports


Display with metric or nautical units.
time (UTC)temp
F
wind
direction
speed
MPH
gust
MPH
rain 1hr
in
rain 24hr
in
rain mn
in
humidity
%
barometer
mb
20260831000659 69 30 0.0 0.0 0.00 0.00 0.00 84 1001.3
20260831000154 69 30 0.0 0.0 0.00 0.00 0.00 84 1001.3
20260830235647 69 30 0.0 0.0 0.00 0.00 0.00 84 1001.3
20260830235141 70 30 0.0 0.0 0.00 0.00 0.00 83 1001.2
20260830234129 70 30 0.0 0.0 0.00 0.00 0.00 83 1001.0
20260830233623 70 30 0.0 0.0 0.00 0.00 0.00 82 1001.1
20260830233117 71 30 0.0 0.0 0.00 0.00 0.00 82 1001.1
20260830232610 71 30 0.0 0.0 0.00 0.00 0.00 81 1001.0
20260830231559 71 30 0.0 0.0 0.00 0.00 0.00 81 1001.0
20260830231053 71 30 0.0 0.0 0.00 0.00 0.00 80 1001.0
20260830230546 71 30 0.0 0.0 0.00 0.00 0.00 80 1001.0
20260830230040 72 30 0.0 0.0 0.00 0.00 0.00 80 1001.0
20260830225535 72 30 0.0 0.0 0.00 0.00 0.00 79 1001.0
20260830225029 72 30 0.0 0.0 0.00 0.00 0.00 79 1000.9
20260830224017 73 30 0.0 0.0 0.00 0.00 0.00 79 1001.1
20260830223511 73 30 0.0 0.0 0.00 0.00 0.00 79 1001.1
20260830223005 73 30 0.0 0.0 0.00 0.00 0.00 78 1001.3
20260830222501 73 30 0.0 0.0 0.00 0.00 0.00 79 1001.2
20260830222000 73 30 0.0 0.0 0.00 0.00 0.00 78 1001.3
20260830221501 73 30 0.0 0.0 0.00 0.00 0.00 78 1001.2
20260830221001 74 30 0.0 0.0 0.00 0.00 0.00 77 1001.3
20260830220002 74 30 0.0 0.0 0.00 0.00 0.00 76 1001.3
20260830215459 74 30 0.0 0.0 0.00 0.00 0.00 76 1001.2
20260830214455 75 30 0.0 0.0 0.00 0.00 0.00 75 1001.3
20260830213954 75 30 0.0 0.0 0.00 0.00 0.00 75 1001.3
20260830213450 75 30 0.0 0.0 0.00 0.00 0.00 72 1001.2
20260830212948 75 30 0.0 0.0 0.00 0.00 0.00 73 1001.3
20260830212449 75 30 0.0 0.0 0.00 0.00 0.00 71 1001.4
20260830211945 75 30 0.0 0.0 0.00 0.00 0.00 72 1001.5
20260830211443 76 30 0.0 0.0 0.00 0.00 0.00 71 1001.4
20260830210940 76 30 0.0 0.0 0.00 0.00 0.00 71 1001.4
20260830210439 76 30 0.0 0.0 0.00 0.00 0.00 70 1001.5
20260830205937 76 30 0.0 0.0 0.00 0.00 0.00 72 1001.6
20260830205435 76 30 0.0 0.0 0.00 0.00 0.00 70 1001.6
20260830204933 76 30 0.0 0.0 0.00 0.00 0.00 69 1001.6
20260830203428 77 30 0.0 2.0 0.00 0.00 0.00 68 1001.7
20260830202927 77 30 0.0 2.0 0.00 0.00 0.00 66 1001.7
20260830202426 77 30 0.0 2.0 0.00 0.00 0.00 69 1001.6
20260830201927 77 75 0.0 0.0 0.00 0.00 0.00 70 1001.6
20260830200926 77 75 0.0 0.0 0.00 0.00 0.00 72 1001.8
20260830200427 76 75 0.0 0.0 0.00 0.00 0.00 74 1001.8
20260830195423 76 75 0.0 0.0 0.00 0.00 0.00 72 1002.0
20260830194922 76 75 0.0 1.0 0.00 0.00 0.00 69 1002.2
20260830194423 76 75 0.0 1.0 0.00 0.00 0.00 70 1002.2
20260830193422 76 75 0.0 1.0 0.00 0.00 0.00 75 1002.3
20260830192922 76 75 0.0 1.0 0.00 0.00 0.00 68 1002.4
20260830192423 76 75 0.0 1.0 0.00 0.00 0.00 72 1002.4
20260830191923 75 75 0.0 1.0 0.00 0.00 0.00 74 1002.6
20260830190917 75 75 0.0 1.0 0.00 0.00 0.00 74 1002.7
20260830190410 75 75 0.0 4.0 0.00 0.00 0.00 74 1002.7
20260830185905 75 75 0.0 4.0 0.00 0.00 0.00 72 1002.8
20260830185358 75 68 0.0 0.0 0.00 0.00 0.00 73 1002.9
20260830184852 76 68 0.0 0.0 0.00 0.00 0.00 74 1002.9
20260830184346 76 68 0.0 0.0 0.00 0.00 0.00 70 1003.0
20260830183841 76 68 0.0 0.0 0.00 0.00 0.00 69 1003.0
20260830182829 76 68 0.0 0.0 0.00 0.00 0.00 70 1003.1
20260830182322 76 68 0.0 2.0 0.00 0.00 0.00 71 1003.1
20260830181817 76 68 0.0 2.0 0.00 0.00 0.00 70 1003.2
20260830181310 76 68 0.0 1.0 0.00 0.00 0.00 73 1003.3
20260830180804 75 68 0.0 1.0 0.00 0.00 0.00 72 1003.3
20260830180259 75 68 0.0 1.0 0.00 0.00 0.00 71 1003.4
20260830175752 75 68 0.0 0.0 0.00 0.00 0.00 76 1003.5
20260830175247 75 68 0.0 1.0 0.00 0.00 0.00 77 1003.5
20260830174741 75 68 0.0 2.0 0.00 0.00 0.00 77 1003.6
20260830174235 75 68 0.0 2.0 0.00 0.00 0.00 77 1003.6
20260830173728 75 68 0.0 1.0 0.00 0.00 0.00 75 1003.7
20260830173223 75 68 0.0 1.0 0.00 0.00 0.00 77 1003.7
20260830172717 75 68 0.0 2.0 0.00 0.00 0.00 76 1003.7
20260830172210 75 68 0.0 2.0 0.00 0.00 0.00 79 1003.6
20260830171704 75 68 0.0 2.0 0.00 0.00 0.00 76 1003.7
20260830171159 74 68 0.0 2.0 0.00 0.00 0.00 77 1003.8
20260830170652 74 68 1.0 2.0 0.00 0.00 0.00 77 1003.9
20260830170147 74 68 0.0 2.0 0.00 0.00 0.00 75 1003.9
20260830165641 73 69 0.0 0.0 0.00 0.00 0.00 79 1004.0
20260830165135 73 69 0.0 2.0 0.00 0.00 0.00 78 1004.1
20260830164629 73 68 0.0 2.0 0.00 0.00 0.00 77 1004.1
20260830164124 73 69 0.0 1.0 0.00 0.00 0.00 77 1004.2
20260830163617 72 69 0.0 2.0 0.00 0.00 0.00 76 1004.3
20260830163110 72 68 0.0 1.0 0.00 0.00 0.00 78 1004.3
20260830162605 72 68 0.0 1.0 0.00 0.00 0.00 79 1004.3
20260830162058 71 68 0.0 1.0 0.00 0.00 0.00 78 1004.4
20260830161553 71 68 0.0 0.0 0.00 0.00 0.00 78 1004.4
20260830161047 71 70 0.0 0.0 0.00 0.00 0.00 79 1004.4
20260830160540 71 70 0.0 0.0 0.00 0.00 0.00 82 1004.5
20260830155529 71 70 0.0 0.0 0.00 0.00 0.00 83 1004.5
20260830155022 71 70 0.0 0.0 0.00 0.00 0.00 83 1004.4
20260830154517 71 70 0.0 0.0 0.00 0.00 0.00 81 1004.3
20260830154010 71 70 0.0 0.0 0.00 0.00 0.00 81 1004.6
20260830153505 71 70 0.0 0.0 0.00 0.00 0.00 81 1004.8
20260830152453 71 70 0.0 0.0 0.00 0.00 0.00 79 1004.7
20260830151946 71 70 0.0 0.0 0.00 0.00 0.00 80 1004.6
20260830151441 71 70 0.0 0.0 0.00 0.00 0.00 80 1004.6
20260830150935 71 70 0.0 0.0 0.00 0.00 0.00 81 1004.8
20260830150429 71 70 0.0 0.0 0.00 0.00 0.00 81 1004.7
20260830145922 71 70 0.0 0.0 0.00 0.00 0.00 82 1004.7
20260830145417 70 70 0.0 0.0 0.00 0.00 0.00 82 1004.7
20260830144911 70 70 0.0 0.0 0.00 0.00 0.00 81 1004.7
20260830144404 70 70 0.0 1.0 0.00 0.00 0.00 82 1004.7
20260830143352 69 70 0.0 1.0 0.00 0.00 0.00 84 1004.9
20260830142852 69 70 0.0 0.0 0.00 0.00 0.00 83 1004.8
20260830142350 68 70 0.0 0.0 0.00 0.00 0.00 83 1004.8
20260830141849 68 70 0.0 0.0 0.00 0.00 0.00 83 1004.7
20260830141346 68 70 0.0 0.0 0.00 0.00 0.00 85 1004.8
20260830140846 68 70 0.0 3.0 0.00 0.00 0.00 84 1004.7
20260830135846 67 69 0.0 1.0 0.00 0.00 0.00 85 1004.8
20260830135346 67 69 0.0 1.0 0.00 0.00 0.00 86 1004.8
20260830134845 67 69 0.0 1.0 0.00 0.00 0.00 86 1004.8
20260830134343 66 69 0.0 0.0 0.00 0.00 0.00 86 1004.8
20260830133340 65 69 0.0 1.0 0.00 0.00 0.00 87 1004.9
20260830132840 65 69 0.0 1.0 0.00 0.00 0.00 88 1004.9
20260830132338 65 69 0.0 0.0 0.00 0.00 0.00 88 1004.9
20260830131836 64 69 0.0 0.0 0.00 0.00 0.00 88 1004.9
20260830131335 64 69 0.0 0.0 0.00 0.00 0.00 88 1004.9
20260830130833 63 69 0.0 0.0 0.00 0.00 0.00 89 1005.0
20260830130334 63 69 0.0 0.0 0.00 0.00 0.00 90 1005.0
20260830125330 62 69 0.0 0.0 0.00 0.00 0.00 89 1005.2
20260830124331 61 69 0.0 0.0 0.00 0.00 0.00 89 1005.2
20260830123829 60 69 0.0 0.0 0.00 0.00 0.00 90 1005.3
20260830123330 60 69 0.0 0.0 0.00 0.00 0.00 90 1005.3
20260830122829 60 69 0.0 0.0 0.00 0.00 0.00 90 1005.3
20260830122329 59 69 0.0 0.0 0.00 0.00 0.00 90 1005.4
20260830121830 59 69 0.0 0.0 0.00 0.00 0.00 90 1005.5
20260830121329 59 69 0.0 0.0 0.00 0.00 0.00 90 1005.5
20260830120329 58 69 0.0 0.0 0.00 0.00 0.00 90 1005.5
20260830115830 58 69 0.0 0.0 0.00 0.00 0.00 90 1005.5
20260830114331 57 69 0.0 0.0 0.00 0.00 0.00 90 1005.6
20260830113829 57 69 0.0 0.0 0.00 0.00 0.00 90 1005.7
20260830113327 57 69 0.0 0.0 0.00 0.00 0.00 90 1005.6
20260830112822 56 69 0.0 0.0 0.00 0.00 0.00 90 1005.5
20260830111304 56 69 0.0 0.0 0.00 0.00 0.00 90 1005.6
20260830110758 56 69 0.0 0.0 0.00 0.00 0.00 90 1005.6
20260830110252 56 69 0.0 0.0 0.00 0.00 0.00 90 1005.5
20260830105746 56 69 0.0 0.0 0.00 0.00 0.00 90 1005.5
20260830105240 56 69 0.0 0.0 0.00 0.00 0.00 90 1005.5
20260830104734 56 69 0.0 0.0 0.00 0.00 0.00 90 1005.5
20260830104228 56 69 0.0 0.0 0.00 0.00 0.00 89 1005.5
20260830103721 56 69 0.0 0.0 0.00 0.00 0.00 90 1005.5
20260830103216 56 69 0.0 0.0 0.00 0.00 0.00 90 1005.4
20260830102709 56 69 0.0 0.0 0.00 0.00 0.00 89 1005.5
20260830102204 56 69 0.0 0.0 0.00 0.00 0.00 90 1005.5
20260830101658 56 69 0.0 0.0 0.00 0.00 0.00 90 1005.5
20260830101152 56 69 0.0 0.0 0.00 0.00 0.00 90 1005.5
20260830100645 56 69 0.0 0.0 0.00 0.00 0.00 90 1005.6
20260830100140 56 69 0.0 0.0 0.00 0.00 0.00 90 1005.6
20260830095634 56 69 0.0 0.0 0.00 0.00 0.00 89 1005.6
20260830095127 56 69 0.0 0.0 0.00 0.00 0.00 89 1005.5
20260830094621 56 69 0.0 0.0 0.00 0.00 0.00 89 1005.4
20260830094116 55 69 0.0 0.0 0.00 0.00 0.00 90 1005.4
20260830092558 55 69 0.0 0.0 0.00 0.00 0.00 90 1005.6
20260830092053 55 69 0.0 0.0 0.00 0.00 0.00 90 1005.6
20260830091546 55 69 0.0 0.0 0.00 0.00 0.00 90 1005.7
20260830091040 55 69 0.0 0.0 0.00 0.00 0.00 89 1005.6
20260830090534 55 69 0.0 0.0 0.00 0.00 0.00 89 1005.7
20260830085522 55 69 0.0 0.0 0.00 0.00 0.00 89 1005.8
20260830085016 55 69 0.0 0.0 0.00 0.00 0.00 89 1005.8
20260830084509 55 69 0.0 0.0 0.00 0.00 0.00 90 1005.9
20260830084004 55 69 0.0 0.0 0.00 0.00 0.00 90 1005.9
20260830083458 55 69 0.0 0.0 0.00 0.00 0.00 90 1006.0
20260830082952 55 69 0.0 0.0 0.00 0.00 0.00 90 1006.1
20260830082445 55 69 0.0 0.0 0.00 0.00 0.00 89 1006.0
20260830081939 55 69 0.0 0.0 0.00 0.00 0.00 90 1006.0
20260830081434 55 69 0.0 0.0 0.00 0.00 0.00 89 1006.0
20260830080422 55 69 0.0 0.0 0.00 0.00 0.00 90 1006.0
20260830075916 55 69 0.0 0.0 0.00 0.00 0.00 90 1006.0
20260830075409 55 69 0.0 0.0 0.00 0.00 0.00 90 1005.9
20260830074903 55 69 0.0 1.0 0.00 0.00 0.00 90 1006.0
20260830073852 54 69 0.0 0.0 0.00 0.00 0.00 90 1006.0
20260830073345 54 69 0.0 0.0 0.00 0.00 0.00 90 1006.0
20260830072840 54 69 0.0 0.0 0.00 0.00 0.00 90 1006.0
20260830072333 54 69 0.0 0.0 0.00 0.00 0.00 89 1005.9
20260830071827 54 69 0.0 0.0 0.00 0.00 0.00 90 1006.0
20260830071322 54 69 0.0 0.0 0.00 0.00 0.00 89 1005.7
20260830070816 54 69 0.0 0.0 0.00 0.00 0.00 89 1005.8
20260830070310 54 69 0.0 0.0 0.00 0.00 0.00 89 1005.8
20260830065804 54 69 0.0 0.0 0.00 0.00 0.00 89 1005.8
20260830064751 54 69 0.0 0.0 0.00 0.00 0.00 89 1005.8
20260830064246 54 69 0.0 0.0 0.00 0.00 0.00 89 1005.9
20260830063740 54 69 0.0 0.0 0.00 0.00 0.00 89 1006.0
20260830062728 54 69 0.0 1.0 0.00 0.00 0.00 89 1006.0
20260830062222 55 69 0.0 1.0 0.00 0.00 0.00 89 1006.0
20260830061716 55 69 0.0 1.0 0.00 0.00 0.00 89 1006.0
20260830061209 55 69 0.0 1.0 0.00 0.00 0.00 89 1006.0
20260830060703 55 69 0.0 1.0 0.00 0.00 0.00 89 1006.1
20260830060158 55 69 0.0 1.0 0.00 0.00 0.00 89 1006.1
20260830055658 55 69 0.0 1.0 0.00 0.00 0.00 89 1006.2
20260830055157 55 69 0.0 0.0 0.00 0.00 0.00 89 1006.2
20260830053155 55 69 0.0 0.0 0.00 0.00 0.00 89 1006.4
20260830052656 55 69 0.0 0.0 0.00 0.00 0.00 89 1006.4
20260830052157 55 69 0.0 0.0 0.00 0.00 0.00 89 1006.4
20260830051655 55 69 0.0 0.0 0.00 0.00 0.00 89 1006.3
20260830051154 55 69 0.0 0.0 0.00 0.00 0.00 89 1006.3
20260830050656 55 69 0.0 0.0 0.00 0.00 0.00 89 1006.3
20260830050151 55 69 0.0 0.0 0.00 0.00 0.00 89 1006.4
20260830045150 55 69 0.0 0.0 0.00 0.00 0.00 88 1006.4
20260830044650 55 69 0.0 0.0 0.00 0.00 0.00 88 1006.4
20260830044151 55 69 0.0 0.0 0.00 0.00 0.00 88 1006.4
20260830042653 55 69 0.0 0.0 0.00 0.00 0.00 88 1006.5
20260830042153 55 69 0.0 0.0 0.00 0.00 0.00 88 1006.4
20260830041151 55 69 0.0 0.0 0.00 0.00 0.00 87 1006.4
20260830040651 55 69 0.0 0.0 0.00 0.00 0.00 87 1006.3
20260830040150 55 69 0.0 0.0 0.00 0.00 0.00 87 1006.3
20260830035649 56 69 0.0 0.0 0.00 0.00 0.00 87 1006.4
20260830035149 56 69 0.0 0.0 0.00 0.00 0.00 87 1006.4
20260830034646 56 69 0.0 0.0 0.00 0.00 0.00 87 1006.4
20260830034144 56 69 0.0 0.0 0.00 0.00 0.00 87 1006.5
20260830033645 56 69 0.0 0.0 0.00 0.00 0.00 87 1006.4
20260830033143 56 69 0.0 0.0 0.00 0.00 0.00 87 1006.5
20260830032644 56 69 0.0 0.0 0.00 0.00 0.00 86 1006.5
20260830032141 56 69 0.0 0.0 0.00 0.00 0.00 86 1006.5
20260830031640 56 69 0.0 0.0 0.00 0.00 0.00 86 1006.4
20260830031139 57 69 0.0 1.0 0.00 0.00 0.00 86 1006.5
20260830030639 57 69 0.0 1.0 0.00 0.00 0.00 85 1006.5
20260830025140 57 69 0.0 0.0 0.00 0.00 0.00 85 1006.5
20260830024640 57 69 0.0 0.0 0.00 0.00 0.00 85 1006.6
20260830024140 58 69 0.0 0.0 0.00 0.00 0.00 85 1006.7
20260830023639 58 69 0.0 0.0 0.00 0.00 0.00 84 1006.6
20260830023141 58 69 0.0 0.0 0.00 0.00 0.00 84 1006.6
20260830022640 58 69 0.0 0.0 0.00 0.00 0.00 83 1006.7
20260830021640 58 69 0.0 0.0 0.00 0.00 0.00 83 1006.6
20260830021140 58 69 0.0 0.0 0.00 0.00 0.00 82 1006.5
20260830020639 58 69 0.0 0.0 0.00 0.00 0.00 82 1006.6
20260830015639 59 69 0.0 0.0 0.00 0.00 0.00 82 1006.6
20260830015133 59 69 0.0 0.0 0.00 0.00 0.00 81 1006.7
20260830014627 59 69 0.0 0.0 0.00 0.00 0.00 80 1006.7
20260830014122 59 69 0.0 0.0 0.00 0.00 0.00 80 1006.6
20260830013615 59 69 0.0 0.0 0.00 0.00 0.00 80 1006.5
20260830013110 60 69 0.0 0.0 0.00 0.00 0.00 80 1006.6
20260830012604 60 69 0.0 0.0 0.00 0.00 0.00 79 1006.6
20260830012058 60 69 0.0 0.0 0.00 0.00 0.00 79 1006.6
20260830011045 61 69 0.0 1.0 0.00 0.00 0.00 78 1006.6
20260830010539 61 69 0.0 1.0 0.00 0.00 0.00 77 1006.5
20260830010035 61 69 0.0 0.0 0.00 0.00 0.00 77 1006.4
20260830005528 62 69 0.0 0.0 0.00 0.00 0.00 76 1006.4
20260830005022 62 69 0.0 0.0 0.00 0.00 0.00 75 1006.4
20260830004515 62 69 0.0 1.0 0.00 0.00 0.00 76 1006.3
20260830004009 62 69 0.0 1.0 0.00 0.00 0.00 75 1006.2
20260830003503 63 69 0.0 1.0 0.00 0.00 0.00 73 1006.3
20260830002958 63 69 0.0 1.0 0.00 0.00 0.00 73 1006.4